EW5168 Weather Reports


Display with metric or nautical units.
time (UTC)temp
F
wind
direction
speed
MPH
gust
MPH
rain 1hr
in
rain 24hr
in
rain mn
in
humidity
%
barometer
mb
20260906051853 82 194 1.0 5.0 0.00 0.00 0.00 1 1012.7
20260906051357 83 153 2.0 5.0 0.00 0.00 0.00 1 1012.9
20260906051353 82 210 2.0 5.0 0.00 0.00 0.00 1 1012.8
20260906050358 83 162 2.0 8.0 0.00 0.00 0.00 1 1013.0
20260906050353 83 155 2.0 8.0 0.00 0.00 0.00 1 1013.0
20260906045356 83 209 1.0 6.0 0.00 0.00 0.00 1 1013.0
20260906045352 83 159 2.0 6.0 0.00 0.00 0.00 1 1013.0
20260906044348 83 136 1.0 6.0 0.00 0.00 0.00 1 1013.0
20260906043848 83 153 1.0 6.0 0.00 0.00 0.00 1 1012.9
20260906043348 83 172 2.0 6.0 0.00 0.00 0.00 1 1012.7
20260906042848 83 104 2.0 6.0 0.00 0.00 0.00 1 1012.7
20260906042352 83 144 3.0 10.0 0.00 0.00 0.00 1 1012.7
20260906042348 83 172 3.0 7.0 0.00 0.00 0.00 1 1012.6
20260906041346 83 154 3.0 10.0 0.00 0.00 0.00 1 1012.8
20260906040848 84 153 2.0 8.0 0.00 0.00 0.00 1 1013.0
20260906040844 84 202 3.0 8.0 0.00 0.00 0.00 1 1012.9
20260906035844 84 207 3.0 8.0 0.00 0.00 0.00 1 1013.0
20260906035344 84 155 2.0 8.0 0.00 0.00 0.00 1 1012.9
20260906034842 84 163 2.0 6.0 0.00 0.00 0.00 1 1012.8
20260906034342 85 146 2.0 6.0 0.00 0.00 0.00 1 1012.9
20260906033846 85 151 2.0 7.0 0.00 0.00 0.00 1 1012.8
20260906033842 85 155 2.0 7.0 0.00 0.00 0.00 1 1012.9
20260906032840 85 171 2.0 6.0 0.00 0.00 0.00 1 1012.7
20260906032342 85 190 2.0 7.0 0.00 0.00 0.00 1 1012.7
20260906032338 85 201 2.0 7.0 0.00 0.00 0.00 1 1012.7
20260906031336 86 168 2.0 6.0 0.00 0.00 0.00 2 1012.7
20260906030840 86 96 1.0 4.0 0.00 0.00 0.00 8 1012.8
20260906030836 86 160 2.0 6.0 0.00 0.00 0.00 6 1012.8
20260906025840 87 134 1.0 5.0 0.00 0.00 0.00 14 1012.5
20260906025836 87 103 1.0 5.0 0.00 0.00 0.00 11 1012.6
20260906024836 87 150 1.0 5.0 0.00 0.00 0.00 18 1012.4
20260906024336 87 164 1.0 5.0 0.00 0.00 0.00 21 1012.3
20260906023835 87 190 1.0 6.0 0.00 0.00 0.00 25 1012.2
20260906023338 88 161 1.0 4.0 0.00 0.00 0.00 30 1011.9
20260906023334 88 154 1.0 6.0 0.00 0.00 0.00 28 1012.1
20260906022332 88 167 2.0 4.0 0.00 0.00 0.00 31 1011.9
20260906021832 88 155 1.0 5.0 0.00 0.00 0.00 33 1011.9
20260906021334 89 78 1.0 5.0 0.00 0.00 0.00 34 1011.8
20260906020836 89 239 2.0 7.0 0.00 0.00 0.00 35 1011.8
20260906020832 89 144 2.0 5.0 0.00 0.00 0.00 34 1011.7
20260906015829 89 126 1.0 7.0 0.00 0.00 0.00 36 1011.7
20260906015330 89 92 2.0 6.0 0.00 0.00 0.00 36 1011.6
20260906014834 90 113 2.0 7.0 0.00 0.00 0.00 36 1011.5
20260906014830 90 109 2.0 7.0 0.00 0.00 0.00 36 1011.6
20260906013830 90 98 2.0 6.0 0.00 0.00 0.00 36 1011.4
20260906013330 90 79 2.0 9.0 0.00 0.00 0.00 36 1011.4
20260906012830 90 107 2.0 9.0 0.00 0.00 0.00 36 1011.4
20260906012334 91 153 2.0 9.0 0.00 0.00 0.00 36 1011.2
20260906012330 91 166 2.0 9.0 0.00 0.00 0.00 36 1011.3
20260906011334 91 123 2.0 7.0 0.00 0.00 0.00 36 1011.0
20260906011330 91 90 2.0 7.0 0.00 0.00 0.00 36 1011.0
20260906010330 92 100 2.0 7.0 0.00 0.00 0.00 36 1010.9
20260906005830 92 86 2.0 6.0 0.00 0.00 0.00 36 1010.9
20260906005334 92 142 2.0 10.0 0.00 0.00 0.00 36 1010.9
20260906005329 92 76 2.0 10.0 0.00 0.00 0.00 36 1010.9
20260906004329 92 167 2.0 4.0 0.00 0.00 0.00 36 1010.9
20260906003828 93 112 2.0 8.0 0.00 0.00 0.00 36 1010.9
20260906003324 93 95 3.0 8.0 0.00 0.00 0.00 37 1010.8
20260906002821 93 88 3.0 7.0 0.00 0.00 0.00 37 1010.9
20260906002319 93 58 3.0 7.0 0.00 0.00 0.00 37 1010.8
20260906001820 94 130 3.0 9.0 0.00 0.00 0.00 37 1010.8
20260906001320 94 155 3.0 9.0 0.00 0.00 0.00 38 1010.8
20260906000820 94 94 3.0 9.0 0.00 0.00 0.00 38 1010.7
20260906000319 94 92 3.0 8.0 0.00 0.00 0.00 38 1010.7
20260905235819 95 180 3.0 7.0 0.00 0.00 0.00 38 1010.7
20260905235319 96 183 3.0 7.0 0.00 0.00 0.00 38 1010.6
20260905234818 96 5 3.0 10.0 0.00 0.00 0.00 37 1010.6
20260905234318 97 118 3.0 10.0 0.00 0.00 0.00 37 1010.5
20260905233818 97 99 3.0 8.0 0.00 0.00 0.00 37 1010.5
20260905233318 97 87 2.0 6.0 0.00 0.00 0.00 36 1010.4
20260905232820 97 161 1.0 5.0 0.00 0.00 0.00 35 1010.4
20260905232816 97 122 1.0 5.0 0.00 0.00 0.00 35 1010.3
20260905231816 97 86 2.0 5.0 0.00 0.00 0.00 35 1010.4
20260905231315 97 185 1.0 5.0 0.00 0.00 0.00 36 1010.6
20260905230816 96 88 2.0 7.0 0.00 0.00 0.00 36 1010.5
20260905230315 96 172 2.0 7.0 0.00 0.00 0.00 36 1010.4
20260905225813 97 86 2.0 8.0 0.00 0.00 0.00 36 1010.5
20260905225314 97 98 3.0 8.0 0.00 0.00 0.00 36 1010.5
20260905224815 97 104 2.0 4.0 0.00 0.00 0.00 36 1010.5
20260905224311 97 83 1.0 3.0 0.00 0.00 0.00 35 1010.4
20260905223811 97 83 2.0 5.0 0.00 0.00 0.00 35 1010.4
20260905223311 97 79 2.0 5.0 0.00 0.00 0.00 35 1010.4
20260905222812 98 163 2.0 7.0 0.00 0.00 0.00 34 1010.4
20260905222312 98 80 3.0 7.0 0.00 0.00 0.00 34 1010.4
20260905221811 99 198 3.0 7.0 0.00 0.00 0.00 34 1010.4
20260905221309 99 79 2.0 7.0 0.00 0.00 0.00 34 1010.3
20260905220809 99 70 2.0 7.0 0.00 0.00 0.00 34 1010.2
20260905220308 99 105 2.0 6.0 0.00 0.00 0.00 34 1010.2
20260905215807 99 200 1.0 6.0 0.00 0.00 0.00 33 1010.3
20260905215306 99 189 2.0 6.0 0.00 0.00 0.00 33 1010.4
20260905214809 99 148 1.0 7.0 0.00 0.00 0.00 34 1010.5
20260905214805 99 92 2.0 6.0 0.00 0.00 0.00 33 1010.4
20260905213803 99 229 2.0 8.0 0.00 0.00 0.00 33 1010.5
20260905213302 98 182 1.0 8.0 0.00 0.00 0.00 33 1010.6
20260905212802 98 69 1.0 5.0 0.00 0.00 0.00 33 1010.7
20260905212301 98 127 1.0 5.0 0.00 0.00 0.00 34 1010.8
20260905211801 98 102 1.0 6.0 0.00 0.00 0.00 34 1010.8
20260905211301 97 334 2.0 11.0 0.00 0.00 0.00 34 1010.9
20260905210808 98 83 2.0 5.0 0.00 0.00 0.00 34 1011.1
20260905210804 97 195 2.0 11.0 0.00 0.00 0.00 34 1011.0
20260905205801 98 84 2.0 7.0 0.00 0.00 0.00 34 1011.1
20260905205301 98 94 1.0 7.0 0.00 0.00 0.00 34 1011.2
20260905204759 97 255 1.0 4.0 0.00 0.00 0.00 34 1011.3
20260905204302 98 178 2.0 5.0 0.00 0.00 0.00 34 1011.3
20260905204258 98 157 2.0 5.0 0.00 0.00 0.00 33 1011.4
20260905203257 99 84 2.0 4.0 0.00 0.00 0.00 33 1011.5
20260905202757 100 79 2.0 3.0 0.00 0.00 0.00 32 1011.5
20260905202258 100 146 2.0 6.0 0.00 0.00 0.00 32 1011.5
20260905201756 99 259 2.0 6.0 0.00 0.00 0.00 33 1011.6
20260905201255 99 165 3.0 12.0 0.00 0.00 0.00 32 1011.7
20260905200755 99 90 3.0 12.0 0.00 0.00 0.00 32 1011.7
20260905200255 99 221 2.0 8.0 0.00 0.00 0.00 32 1011.8
20260905195755 98 167 2.0 8.0 0.00 0.00 0.00 32 1011.9
20260905195259 96 175 1.0 6.0 0.00 0.00 0.00 33 1012.0
20260905195255 97 47 1.0 6.0 0.00 0.00 0.00 32 1011.9
20260905194255 96 103 2.0 8.0 0.00 0.00 0.00 33 1012.1
20260905193759 97 102 2.0 7.0 0.00 0.00 0.00 32 1012.2
20260905193755 97 146 2.0 8.0 0.00 0.00 0.00 32 1012.1
20260905192756 96 344 1.0 7.0 0.00 0.00 0.00 32 1012.3
20260905192257 96 166 2.0 7.0 0.00 0.00 0.00 32 1012.5
20260905192253 96 159 1.0 5.0 0.00 0.00 0.00 32 1012.4
20260905191253 96 62 2.0 7.0 0.00 0.00 0.00 32 1012.7
20260905190757 97 199 3.0 13.0 0.00 0.00 0.00 31 1012.7
20260905190753 97 67 2.0 7.0 0.00 0.00 0.00 32 1012.7
20260905185751 96 178 2.0 13.0 0.00 0.00 0.00 31 1012.9
20260905185252 96 155 1.0 3.0 0.00 0.00 0.00 32 1013.0
20260905184752 96 91 2.0 7.0 0.00 0.00 0.00 31 1013.1
20260905184255 96 107 2.0 9.0 0.00 0.00 0.00 30 1013.3
20260905184250 96 119 2.0 7.0 0.00 0.00 0.00 31 1013.2
20260905183856 97 107 2.0 9.0 0.00 0.00 0.00 30 1013.3
20260905182751 96 156 1.0 4.0 0.00 0.00 0.00 29 1013.3
20260905182251 95 72 2.0 6.0 0.00 0.00 0.00 30 1013.5
20260905181755 95 180 2.0 7.0 0.00 0.00 0.00 29 1013.7
20260905181751 94 134 2.0 6.0 0.00 0.00 0.00 29 1013.7
20260905180751 94 88 2.0 7.0 0.00 0.00 0.00 29 1013.7
20260905180250 94 81 3.0 9.0 0.00 0.00 0.00 28 1014.0
20260905180246 94 182 4.0 9.0 0.00 0.00 0.00 28 1014.0
20260905175244 94 163 3.0 8.0 0.00 0.00 0.00 27 1014.1
20260905174747 93 90 1.0 6.0 0.00 0.00 0.00 27 1014.2
20260905174245 93 158 2.0 8.0 0.00 0.00 0.00 26 1014.3
20260905173745 93 194 2.0 8.0 0.00 0.00 0.00 26 1014.4
20260905173245 92 191 2.0 10.0 0.00 0.00 0.00 26 1014.4
20260905172746 93 202 2.0 7.0 0.00 0.00 0.00 25 1014.5
20260905172742 93 169 3.0 10.0 0.00 0.00 0.00 26 1014.5
20260905171743 93 69 3.0 11.0 0.00 0.00 0.00 24 1014.6
20260905171739 93 199 2.0 6.0 0.00 0.00 0.00 24 1014.5
20260905170739 93 192 3.0 11.0 0.00 0.00 0.00 24 1014.6
20260905170239 92 200 2.0 9.0 0.00 0.00 0.00 24 1014.6
20260905165737 92 147 3.0 11.0 0.00 0.00 0.00 23 1014.6
20260905165236 92 177 2.0 11.0 0.00 0.00 0.00 21 1014.6
20260905164740 91 205 2.0 5.0 0.00 0.00 0.00 16 1014.7
20260905164736 91 169 2.0 6.0 0.00 0.00 0.00 17 1014.7
20260905163737 91 196 2.0 8.0 0.00 0.00 0.00 15 1014.7
20260905163237 91 172 3.0 8.0 0.00 0.00 0.00 15 1014.7
20260905162737 91 162 2.0 6.0 0.00 0.00 0.00 14 1014.8
20260905162234 90 246 2.0 8.0 0.00 0.00 0.00 13 1014.7
20260905161739 90 227 3.0 10.0 0.00 0.00 0.00 11 1014.7
20260905161735 90 184 3.0 10.0 0.00 0.00 0.00 9 1014.7
20260905160738 90 155 3.0 9.0 0.00 0.00 0.00 6 1014.7
20260905160236 89 158 3.0 9.0 0.00 0.00 0.00 5 1014.7
20260905155734 89 181 2.0 9.0 0.00 0.00 0.00 1 1014.7
20260905155239 88 217 3.0 9.0 0.00 0.00 0.00 1 1014.8
20260905155235 89 169 2.0 9.0 0.00 0.00 0.00 1 1014.7
20260905154838 88 242 3.0 9.0 0.00 0.00 0.00 1 1014.7
20260905153732 87 119 2.0 8.0 0.00 0.00 0.00 1 1014.8
20260905153237 87 245 2.0 10.0 0.00 0.00 0.00 1 1014.8
20260905153233 87 227 2.0 7.0 0.00 0.00 0.00 1 1014.8
20260905152232 87 188 2.0 10.0 0.00 0.00 0.00 1 1014.8
20260905151732 86 153 2.0 5.0 0.00 0.00 0.00 1 1014.8
20260905151233 85 211 3.0 7.0 0.00 0.00 0.00 1 1014.8
20260905150732 85 156 3.0 7.0 0.00 0.00 0.00 1 1014.9
20260905150231 85 225 2.0 5.0 0.00 0.00 0.00 1 1014.8
20260905145730 84 223 3.0 7.0 0.00 0.00 0.00 1 1014.7
20260905145230 83 202 3.0 7.0 0.00 0.00 0.00 1 1014.7
20260905144730 83 227 2.0 8.0 0.00 0.00 0.00 1 1014.6
20260905144231 82 150 2.0 8.0 0.00 0.00 0.00 1 1014.7
20260905143730 82 238 2.0 4.0 0.00 0.00 0.00 1 1014.7
20260905143231 82 192 2.0 5.0 0.00 0.00 0.00 1 1014.7
20260905142731 81 178 1.0 5.0 0.00 0.00 0.00 1 1014.7
20260905142232 81 203 2.0 6.0 0.00 0.00 0.00 1 1014.7
20260905141730 81 167 3.0 6.0 0.00 0.00 0.00 1 1014.7
20260905141229 80 186 3.0 6.0 0.00 0.00 0.00 1 1014.7
20260905140730 80 153 3.0 6.0 0.00 0.00 0.00 1 1014.7
20260905140230 80 193 1.0 5.0 0.00 0.00 0.00 1 1014.7
20260905135731 79 151 1.0 3.0 0.00 0.00 0.00 1 1014.7
20260905135234 79 223 1.0 4.0 0.00 0.00 0.00 1 1014.7
20260905135230 79 198 1.0 4.0 0.00 0.00 0.00 1 1014.7
20260905134229 78 163 1.0 4.0 0.00 0.00 0.00 1 1014.5
20260905133726 78 163 1.0 4.0 0.00 0.00 0.00 1 1014.5
20260905133226 78 163 1.0 4.0 0.00 0.00 0.00 1 1014.6
20260905132727 78 177 0.0 4.0 0.00 0.00 0.00 1 1014.6
20260905132230 77 170 0.0 0.0 0.00 0.00 0.00 1 1014.6
20260905132226 78 170 0.0 2.0 0.00 0.00 0.00 1 1014.5
20260905131229 76 170 0.0 0.0 0.00 0.00 0.00 1 1014.4
20260905131224 77 170 0.0 0.0 0.00 0.00 0.00 1 1014.6
20260905130224 76 170 0.0 0.0 0.00 0.00 0.00 1 1014.3
20260905125725 76 171 0.0 0.0 0.00 0.00 0.00 1 1014.3
20260905125224 76 171 0.0 0.0 0.00 0.00 0.00 1 1014.2
20260905124722 76 171 0.0 0.0 0.00 0.00 0.00 1 1014.2
20260905124224 76 171 0.0 1.0 0.00 0.00 0.00 1 1014.1
20260905123721 76 171 0.0 1.0 0.00 0.00 0.00 1 1014.0
20260905123226 76 171 1.0 3.0 0.00 0.00 0.00 1 1013.7
20260905123222 76 171 0.0 1.0 0.00 0.00 0.00 1 1013.9
20260905122225 76 162 1.0 2.0 0.00 0.00 0.00 1 1013.6
20260905122221 76 171 1.0 3.0 0.00 0.00 0.00 1 1013.7
20260905121218 76 161 1.0 2.0 0.00 0.00 0.00 1 1013.6
20260905120718 76 161 0.0 1.0 0.00 0.00 0.00 1 1013.6
20260905120216 76 161 0.0 1.0 0.00 0.00 0.00 1 1013.5
20260905115716 76 161 0.0 1.0 0.00 0.00 0.00 1 1013.5
20260905115217 76 161 0.0 0.0 0.00 0.00 0.00 1 1013.4
20260905114719 76 161 0.0 0.0 0.00 0.00 0.00 1 1013.3
20260905114715 76 161 0.0 0.0 0.00 0.00 0.00 1 1013.4
20260905113714 76 161 0.0 0.0 0.00 0.00 0.00 1 1013.3
20260905113212 76 161 0.0 0.0 0.00 0.00 0.00 1 1013.3
20260905112712 76 161 0.0 0.0 0.00 0.00 0.00 1 1013.4
20260905112212 76 161 0.0 0.0 0.00 0.00 0.00 1 1013.3
20260905111712 76 161 0.0 0.0 0.00 0.00 0.00 1 1013.3
20260905111210 76 161 0.0 0.0 0.00 0.00 0.00 1 1013.3
20260905110710 76 161 0.0 0.0 0.00 0.01 0.00 1 1013.3
20260905110216 76 161 0.0 0.0 0.00 0.01 0.00 1 1013.3
20260905110212 76 161 0.0 0.0 0.00 0.01 0.00 1 1013.3
20260905105814 76 161 0.0 0.0 0.00 0.01 0.00 1 1013.3
20260905104706 76 161 0.0 0.0 0.00 0.01 0.00 1 1013.2
20260905104206 76 161 0.0 1.0 0.00 0.01 0.00 1 1013.3
20260905103705 77 161 0.0 1.0 0.00 0.01 0.00 1 1013.3
20260905103205 77 161 0.0 2.0 0.00 0.01 0.00 1 1013.3
20260905102705 77 161 1.0 3.0 0.00 0.01 0.00 1 1013.2
20260905102206 77 161 1.0 3.0 0.00 0.01 0.00 1 1013.2
20260905101706 77 194 1.0 5.0 0.00 0.01 0.00 1 1013.2
20260905101206 77 188 2.0 5.0 0.00 0.01 0.00 1 1013.2
20260905100705 77 160 2.0 5.0 0.00 0.01 0.00 1 1013.2
20260905100206 77 177 2.0 5.0 0.00 0.01 0.00 1 1013.2
20260905100202 77 198 1.0 3.0 0.00 0.01 0.00 1 1013.2
20260905095202 77 150 1.0 4.0 0.00 0.01 0.00 1 1013.3
20260905094702 77 175 2.0 5.0 0.00 0.01 0.00 1 1013.2
20260905094201 77 213 2.0 5.0 0.00 0.01 0.00 1 1013.2
20260905093700 77 165 2.0 5.0 0.00 0.01 0.00 1 1013.2
20260905093200 77 152 1.0 4.0 0.00 0.01 0.00 1 1013.1
20260905092700 77 202 1.0 5.0 0.00 0.01 0.00 1 1013.0
20260905092202 77 142 2.0 5.0 0.00 0.01 0.00 1 1013.0
20260905091659 77 158 2.0 5.0 0.00 0.01 0.00 1 1013.1
20260905091200 78 165 2.0 5.0 0.00 0.01 0.00 1 1013.1
20260905090700 78 179 2.0 4.0 0.00 0.01 0.00 1 1013.2
20260905090203 78 206 1.0 4.0 0.00 0.01 0.00 1 1013.2
20260905090159 78 157 1.0 4.0 0.00 0.01 0.00 1 1013.1
20260905085158 78 213 1.0 3.0 0.00 0.01 0.00 1 1013.0
20260905084658 78 167 1.0 4.0 0.00 0.01 0.00 1 1013.1
20260905084158 78 184 1.0 4.0 0.00 0.01 0.00 1 1013.0
20260905083659 78 197 2.0 5.0 0.00 0.01 0.00 1 1013.0
20260905083655 78 180 1.0 5.0 0.00 0.01 0.00 1 1013.0
20260905082653 78 198 2.0 4.0 0.00 0.01 0.00 1 1013.0
20260905082157 78 191 2.0 5.0 0.00 0.01 0.00 1 1013.0
20260905082153 78 178 2.0 5.0 0.00 0.01 0.00 1 1013.0
20260905081759 78 163 2.0 5.0 0.00 0.01 0.00 1 1013.0
20260905080654 78 236 2.0 5.0 0.00 0.01 0.00 1 1013.1
20260905080650 78 170 2.0 5.0 0.00 0.01 0.00 1 1013.1
20260905075646 78 200 2.0 5.0 0.00 0.01 0.00 1 1013.2
20260905075146 78 226 2.0 4.0 0.00 0.01 0.00 1 1013.2
20260905074645 78 184 1.0 4.0 0.00 0.01 0.00 1 1013.2
20260905074147 78 207 2.0 4.0 0.00 0.01 0.00 1 1013.3
20260905073646 78 194 2.0 5.0 0.00 0.01 0.00 1 1013.3
20260905073145 78 172 2.0 5.0 0.00 0.01 0.00 1 1013.4
20260905072645 78 209 2.0 5.0 0.00 0.01 0.00 1 1013.4
20260905072144 78 155 2.0 5.0 0.00 0.01 0.00 1 1013.3
20260905071641 78 166 2.0 5.0 0.00 0.01 0.00 1 1013.4
20260905071145 79 201 2.0 4.0 0.00 0.01 0.00 1 1013.2
20260905071141 78 159 2.0 5.0 0.00 0.01 0.00 1 1013.2
20260905070140 79 192 1.0 4.0 0.00 0.01 0.00 1 1013.3
20260905065641 79 197 1.0 4.0 0.00 0.01 0.00 1 1013.3
20260905065141 79 184 1.0 3.0 0.00 0.01 0.00 1 1013.3
20260905064642 79 180 1.0 3.0 0.00 0.01 0.00 1 1013.4
20260905064142 79 155 0.0 3.0 0.00 0.01 0.00 1 1013.4
20260905063641 79 186 0.0 3.0 0.00 0.01 0.00 1 1013.5
20260905063145 79 197 0.0 2.0 0.00 0.01 0.00 1 1013.5
20260905063141 79 186 0.0 3.0 0.00 0.01 0.00 1 1013.6
20260905062141 79 160 1.0 3.0 0.00 0.01 0.00 1 1013.6
20260905061639 79 160 1.0 4.0 0.00 0.01 0.00 1 1013.6
20260905061139 80 186 1.0 4.0 0.00 0.01 0.00 1 1013.6
20260905060639 80 188 0.0 2.0 0.00 0.01 0.00 1 1013.6
20260905060141 80 184 1.0 3.0 0.00 0.01 0.00 1 1013.6
20260905055638 80 184 1.0 5.0 0.00 0.01 0.00 1 1013.6
20260905055138 80 167 1.0 5.0 0.00 0.01 0.00 1 1013.5
20260905054637 80 148 2.0 6.0 0.00 0.01 0.00 1 1013.5
20260905054137 80 161 1.0 6.0 0.00 0.01 0.00 1 1013.4
20260905053637 80 116 1.0 3.0 0.00 0.01 0.00 1 1013.4
20260905053137 80 186 1.0 4.0 0.00 0.01 0.00 1 1013.5
20260905052637 80 170 1.0 4.0 0.00 0.01 0.00 1 1013.5